{"data":{"norad_id":57794,"epoch":"2026-09-22T21:31:49.432224Z","epoch_age_seconds":98960,"freshness":"FRESH","line1":"1 57794U 23135C   26265.89709991 -.00000198  00000+0 -17029-4 0  9991","line2":"2 57794  49.9713 101.4582 0013124 241.3714 118.5878 14.23084702158543","mean_motion":14.23084702,"eccentricity":0.0013124,"inclination_deg":49.9713,"raan_deg":101.4582,"arg_perigee_deg":241.3714,"mean_anomaly_deg":118.5878,"bstar":-1.7029e-5,"rev_number":15854,"period_min":101.18863606476,"perigee_km":805.49923147311,"apogee_km":824.37961847338,"semimajor_km":7193.0764249732,"source":"CELESTRAK","updated_at":"2026-09-23T09:00:18.383435Z"}}